TimeBST,TemperatureF,Dew PointF,Humidity,Sea Level PressureIn,VisibilityMPH,Wind Direction,Wind SpeedMPH,Gust SpeedMPH,PrecipitationIn,Events,Conditions,WindDirDegrees,DateUTC
12:50 AM,57,52,76,29.68,19,SW,12.7,,,,Partly Cloudy,230,2012-10-02 23:50:00
12:50 AM,57.2,51.8,82,29.65,6.2,SW,12.7,-,N/A,,Mostly Cloudy,230,2012-10-02 23:50:00
1:50 AM,55.4,50.0,82,29.65,6.2,SW,10.4,-,N/A,,Mostly Cloudy,230,2012-10-03 00:50:00
2:50 AM,55.4,50.0,82,29.65,6.2,SW,10.4,-,N/A,,Mostly Cloudy,230,2012-10-03 01:50:00
3:50 AM,54,50,80,29.68,22,SW,8.1,,,,Scattered Clouds,230,2012-10-03 02:50:00
3:50 AM,53.6,50.0,88,29.65,6.2,SW,8.1,-,N/A,,Mostly Cloudy,230,2012-10-03 02:50:00
4:50 AM,53.6,50.0,88,29.65,6.2,SW,9.2,-,N/A,,Mostly Cloudy,220,2012-10-03 03:50:00
5:50 AM,53.6,48.2,82,29.65,-9999.0,SW,9.2,-,N/A,,Clear,230,2012-10-03 04:50:00
6:50 AM,52,47,77,29.67,19,SW,8.1,,,,Scattered Clouds,230,2012-10-03 05:50:00
6:50 AM,51.8,46.4,82,29.65,6.2,SW,8.1,-,N/A,,Partly Cloudy,230,2012-10-03 05:50:00
7:50 AM,51.8,46.4,82,29.68,6.2,SW,8.1,-,N/A,,Scattered Clouds,230,2012-10-03 06:50:00
8:50 AM,53.6,46.4,77,29.68,6.2,West,9.2,-,N/A,,Scattered Clouds,260,2012-10-03 07:50:00
9:50 AM,54,46,65,29.72,22,West,13.8,,,,Mostly Cloudy,260,2012-10-03 08:50:00
9:50 AM,55.4,46.4,72,29.71,6.2,West,13.8,-,N/A,,Scattered Clouds,260,2012-10-03 08:50:00
11:50 AM,55.4,44.6,67,29.71,6.2,WSW,9.2,-,N/A,,Partly Cloudy,240,2012-10-03 10:50:00
12:50 PM,56,40,43,29.73,31,WSW,16.1,,,,Partly Cloudy,250,2012-10-03 11:50:00
12:50 PM,57.2,39.2,51,29.71,6.2,WSW,16.1,-,N/A,,Partly Cloudy,250,2012-10-03 11:50:00
1:50 PM,57.2,42.8,59,29.71,6.2,WSW,13.8,-,N/A,,Partly Cloudy,240,2012-10-03 12:50:00
2:50 PM,57.2,41.0,55,29.68,6.2,SW,12.7,-,N/A,,Scattered Clouds,230,2012-10-03 13:50:00
3:50 PM,58,42,45,29.69,31,SW,12.7,,,,Partly Cloudy,220,2012-10-03 14:50:00
3:50 PM,57.2,42.8,59,29.68,6.2,SW,12.7,-,N/A,,Mostly Cloudy,220,2012-10-03 14:50:00
4:50 PM,57.2,42.8,59,29.65,6.2,SW,12.7,-,N/A,,Mostly Cloudy,230,2012-10-03 15:50:00
5:50 PM,55.4,46.4,72,29.65,6.2,SW,11.5,-,N/A,,Mostly Cloudy,220,2012-10-03 16:50:00
6:50 PM,55,45,61,29.68,25,SW,11.5,,,Rain,Light Rain Showers,230,2012-10-03 17:50:00
6:50 PM,55.4,44.6,67,29.65,6.2,SW,11.5,-,N/A,,Mostly Cloudy,230,2012-10-03 17:50:00
7:50 PM,48.2,46.4,93,29.68,6.2,West,3.5,-,N/A,,Mostly Cloudy,280,2012-10-03 18:50:00
8:50 PM,48.2,44.6,87,29.68,-9999.0,WSW,4.6,-,N/A,,Clear,250,2012-10-03 19:50:00
9:50 PM,48,46,89,29.71,31,SW,4.6,,,,Partly Cloudy,220,2012-10-03 20:50:00
9:50 PM,48.2,46.4,93,29.68,-9999.0,SW,4.6,-,N/A,,Clear,220,2012-10-03 20:50:00
10:50 PM,48.2,46.4,93,29.68,-9999.0,SW,3.5,-,N/A,,Clear,220,2012-10-03 21:50:00
11:50 PM,48.2,44.6,87,29.68,-9999.0,SW,4.6,-,N/A,,Clear,230,2012-10-03 22:50:00